Weather History for KALS - April, 2013

Change the Weather History Date:

Monday, April 8, 2013

  Actual Average Record
Temperature  
Mean Temperature 43 °F 40 °F  
Max Temperature 61 °F 57 °F 74 °F (1989)
Min Temperature 25 °F 22 °F -6 °F (1973)
Degree Days  
Heating Degree Days 22 25  
Month to date heating degree days 170 210  
Since 1 July heating degree days 7916 7516  
Cooling Degree Days 0 0  
Month to date cooling degree days 0 0  
Year to date cooling degree days 0 0  
Moisture  
Dew Point 18 °F    
Average Humidity 36    
Maximum Humidity 53    
Minimum Humidity 19    
Precipitation  
Precipitation T in 0.01 in 0.40 in (1958)
Month to date precipitation 0.01 0.15  
Year to date precipitation 0.57 1.20  
Snow  
Snow 0.00 in 0.10 in 5.00 in (1937)
Month to date snowfall T 1.2  
Since 1 July snowfall 18.9 24.3  
Snow Depth 0.00 in    
Sea Level Pressure  
Sea Level Pressure 29.47 in    
Wind  
Wind Speed 14 mph (South)    
Max Wind Speed 35 mph    
Max Gust Speed 45 mph    
Visibility 10 miles    
Events      
T = Trace of Precipitation, MM = Missing Value Source: NWS Daily Summary

Daily Weather History Graph

Daily Weather History Graph

Search for Another Location

Airport or City:

Trip Planner

Search our weather history database for the weather conditions in past years. The results will help you decide how hot, cold, wet, or windy it might be!

Date:

Astronomy

Apr. 08, 2013 Rise Set
Actual Time 6:38 AM MDT 7:32 PM MDT
Civil Twilight 6:11 AM MDT 7:59 PM MDT
Nautical Twilight 5:40 AM MDT 8:31 PM MDT
Astronomical Twilight 5:07 AM MDT 9:03 PM MDT
Moon 5:28 AM MDT (4/8) 6:10 PM MDT (4/8)
Length of Visible Light 13h 47m
Length of Day
12h 54m
Waning Crescent, 3% of the Moon is Illuminated
Apr 8
Waning Crescent
Apr 10
New
Apr 18
First Quarter
Apr 25
Full
May 2
Last Quarter

Hourly Weather History & Observations

Time (MDT) Temp. Windchill Dew Point Humidity Pressure Visibility Wind Dir Wind Speed Gust Speed Precip Events Conditions
12:52 AM 36.0 °F 28.0 °F 14.0 °F 41% 29.68 in 10.0 mi SSE 11.5 mph - N/A   Clear
1:52 AM 32.0 °F 25.6 °F 14.0 °F 48% 29.67 in 10.0 mi East 6.9 mph - N/A   Clear
2:52 AM 32.0 °F 27.5 °F 14.0 °F 48% 29.63 in 10.0 mi South 4.6 mph - N/A   Clear
3:52 AM 28.9 °F 25.2 °F 12.9 °F 51% 29.63 in 10.0 mi South 3.5 mph - N/A   Clear
4:52 AM 26.1 °F 19.4 °F 10.9 °F 53% 29.62 in 10.0 mi South 5.8 mph - N/A   Clear
5:52 AM 34.0 °F 26.6 °F 14.0 °F 44% 29.57 in 10.0 mi SSW 9.2 mph - N/A   Clear
6:52 AM 34.0 °F 28.8 °F 16.0 °F 48% 29.57 in 10.0 mi South 5.8 mph - N/A   Clear
7:52 AM 39.0 °F 33.4 °F 19.9 °F 46% 29.60 in 10.0 mi SSE 8.1 mph - N/A   Clear
8:52 AM 48.0 °F - 23.0 °F 37% 29.55 in 10.0 mi South 15.0 mph - N/A   Clear
9:52 AM 50.0 °F - 21.0 °F 32% 29.55 in 10.0 mi WSW 16.1 mph - N/A   Clear
10:52 AM 53.1 °F - 21.0 °F 29% 29.54 in 10.0 mi SW 18.4 mph - N/A   Clear
11:52 AM 57.9 °F - 19.9 °F 23% 29.48 in 10.0 mi SSW 20.7 mph 33.4 mph N/A   Clear
12:52 PM 59.0 °F - 17.1 °F 20% 29.46 in 10.0 mi SSW 23.0 mph 28.8 mph N/A   Scattered Clouds
1:52 PM 57.9 °F - 19.0 °F 22% 29.44 in 10.0 mi South 13.8 mph 25.3 mph N/A   Scattered Clouds
2:52 PM 57.9 °F - 17.1 °F 20% 29.39 in 10.0 mi South 15.0 mph 20.7 mph N/A   Mostly Cloudy
3:52 PM 57.0 °F - 18.0 °F 22% 29.37 in 10.0 mi SSW 23.0 mph 33.4 mph N/A   Overcast
4:52 PM 59.0 °F - 18.0 °F 20% 29.33 in 10.0 mi South 23.0 mph 31.1 mph N/A   Scattered Clouds
5:52 PM 57.9 °F - 18.0 °F 21% 29.27 in 8.0 mi South 29.9 mph 39.1 mph 0.00 in   Clear
6:52 PM 57.0 °F - 16.0 °F 20% 29.28 in 10.0 mi South 23.0 mph 32.2 mph N/A   Scattered Clouds
7:52 PM 51.1 °F - 16.0 °F 25% 29.33 in 10.0 mi SW 6.9 mph - N/A   Partly Cloudy
8:52 PM 50.0 °F - 19.9 °F 31% 29.32 in 10.0 mi SW 12.7 mph 21.9 mph N/A   Mostly Cloudy
9:52 PM 50.0 °F - 18.0 °F 28% 29.34 in 10.0 mi SSW 17.3 mph - N/A   Overcast
10:52 PM 48.0 °F - 19.9 °F 33% 29.36 in 7.0 mi South 16.1 mph - N/A   Overcast
11:52 PM 45.0 °F 37.9 °F 28.0 °F 52% 29.39 in 10.0 mi South 16.1 mph - N/A   Overcast